Weather History for Owensboro, KY

Change the Weather History Date:

Tuesday, May 14, 2013

  Actual Average Record
Temperature  
Mean Temperature 70 °F -  
Max Temperature 86 °F 77 °F 90 °F (1962)
Min Temperature 54 °F 54 °F 40 °F (1973)
Cooling Degree Days 5    
Growing Degree Days 20 (Base 50)    
Moisture  
Dew Point 55 °F    
Average Humidity 58    
Maximum Humidity 75    
Minimum Humidity 43    
Precipitation  
Precipitation 0.00 in - - ()
Sea Level Pressure  
Sea Level Pressure 29.99 in    
Wind  
Wind Speed 10 mph (SSW)    
Max Wind Speed 18 mph    
Max Gust Speed 25 mph    
Visibility 10 miles    
Events      
Averages and records for this station are not official NWS values.
T = Trace of Precipitation, MM = Missing Value Source: NWS Daily Summary

Daily Weather History Graph

Daily Weather History Graph

Search for Another Location

Airport:

Trip Planner

Search our weather history database for the weather conditions in past years. The results will help you decide how hot, cold, wet, or windy it might be!

Date:

Astronomy

May. 14, 2013 Rise Set
Actual Time 5:39 AM CDT 7:50 PM CDT
Civil Twilight 5:10 AM CDT 8:20 PM CDT
Nautical Twilight 4:34 AM CDT 8:56 PM CDT
Astronomical Twilight 3:55 AM CDT 9:35 PM CDT
Moon 9:18 AM CDT (5/14) 11:38 PM CDT (5/14)
Length of Visible Light 15h 10m
Length of Day
14h 11m
Waxing Crescent, 19% of the Moon is Illuminated
May 14
Waxing Crescent
May 17
First Quarter
May 24
Full
May 31
Last Quarter
Jun 8
New

Hourly Weather History & Observations

Time (CDT) Temp. Heat Index Dew Point Humidity Pressure Visibility Wind Dir Wind Speed Gust Speed Precip Events Conditions
12:56 AM 54.9 °F - 46.9 °F 75% 30.12 in 10.0 mi SSE 6.9 mph - N/A   Clear
1:56 AM 54.0 °F - 45.0 °F 72% 30.11 in 10.0 mi SSE 8.1 mph - N/A   Clear
2:56 AM 54.0 °F - 43.9 °F 69% 30.11 in 10.0 mi SSE 4.6 mph - N/A   Clear
3:56 AM 54.0 °F - 43.9 °F 69% 30.09 in 10.0 mi SSE 6.9 mph - N/A   Clear
4:56 AM 54.0 °F - 45.0 °F 72% 30.09 in 10.0 mi SSE 8.1 mph - N/A   Clear
5:56 AM 54.9 °F - 45.0 °F 69% 30.09 in 10.0 mi SSE 9.2 mph - N/A   Clear
6:56 AM 57.9 °F - 45.9 °F 64% 30.08 in 10.0 mi SSE 10.4 mph - N/A   Clear
7:56 AM 65.8 °F - 52.0 °F 61% 30.07 in 10.0 mi South 12.7 mph - N/A   Clear
8:56 AM 65.8 °F - 50.0 °F 57% 30.05 in 10.0 mi South 11.5 mph 17.3 mph N/A   Clear
9:56 AM 72.0 °F - 54.9 °F 55% 30.03 in 10.0 mi South 11.5 mph 17.3 mph N/A   Clear
10:56 AM 74.8 °F - 57.9 °F 55% 30.01 in 10.0 mi SSW 11.5 mph 17.3 mph N/A   Clear
11:56 AM 79.0 °F - 59.9 °F 52% 29.99 in 10.0 mi SSW 15.0 mph 23.0 mph N/A   Clear
12:56 PM 82.9 °F 84.0 °F 63.0 °F 51% 29.96 in 10.0 mi SSW 16.1 mph 21.9 mph N/A   Clear
1:56 PM 84.9 °F 85.0 °F 61.0 °F 44% 29.94 in 10.0 mi SSW 17.3 mph 23.0 mph N/A   Clear
2:56 PM 86.0 °F 86.1 °F 61.0 °F 43% 29.92 in 10.0 mi SW 16.1 mph 23.0 mph N/A   Clear
3:56 PM 86.9 °F 87.8 °F 63.0 °F 45% 29.91 in 10.0 mi SW 17.3 mph 23.0 mph N/A   Clear
4:56 PM 86.9 °F 87.8 °F 63.0 °F 45% 29.90 in 10.0 mi SSW 18.4 mph - N/A   Clear
5:56 PM 86.0 °F 86.1 °F 61.0 °F 43% 29.89 in 10.0 mi SW 17.3 mph 25.3 mph N/A   Clear
6:56 PM 82.9 °F 83.3 °F 61.0 °F 47% 29.88 in 10.0 mi SW 16.1 mph 23.0 mph N/A   Clear
7:56 PM 79.0 °F - 61.0 °F 54% 29.89 in 10.0 mi SW 10.4 mph - N/A   Clear
8:56 PM 75.9 °F - 59.9 °F 57% 29.90 in 10.0 mi SW 11.5 mph - N/A   Clear
9:56 PM 74.8 °F - 59.9 °F 60% 29.91 in 10.0 mi SW 11.5 mph - N/A   Clear
10:56 PM 73.9 °F - 61.9 °F 66% 29.92 in 10.0 mi SW 9.2 mph - N/A   Clear
11:56 PM 72.9 °F - 61.9 °F 68% 29.93 in 10.0 mi SW 10.4 mph - N/A   Clear